Location: ???
(32.3885°N, 98.2106°E)
Time: 13:02:16
(UTC+00:00)

STARLINK-36529 - Pass Details

Date: 17 January 2026
Orbit: 272 x 274 km, 43.0° (Epoch: 20 January)

Event Time Altitude Azimuth Distance (km) Brightness Sun altitude
Exits shadow 23:34:41 11° 347° (NNW) 926 3.5 -11.4°
Drops below altitude 10° 23:35:20 10° 4° (N) 983 3.8 -11.3°
Sets 23:38:04 0° 44° (NE) 1,776 5.6 -10.7°
